Grand Canyon, AZ

5:32 PM MST on October 23, 2017 (GMT -0700)
Grand Canyon National Park

Weather History for KGCN - January, 2014

Change the Weather History Date:

Sunday, January 5, 2014

  Actual Average Record
Temperature  
Mean Temperature 22 °F -  
Max Temperature 42 °F 42 °F 57 °F (1999)
Min Temperature 3 °F 15 °F -8 °F (2011)
Degree Days  
Heating Degree Days 42    
Moisture  
Dew Point -3 °F    
Average Humidity 49    
Maximum Humidity 84    
Minimum Humidity 11    
Precipitation  
Precipitation 0.00 in - - ()
Sea Level Pressure  
Sea Level Pressure 30.33 in    
Wind  
Wind Speed 2 mph (NNE)    
Max Wind Speed 8 mph    
Max Gust Speed -    
Visibility 10 miles    
Events      
Averages and records for this station are not official NWS values.
T = Trace of Precipitation, MM = Missing Value Source: NWS Daily Summary

Daily Weather History Graph

Daily Weather History Graph

Search for Another Location

Airport or City:

Trip Planner

Search our weather history database for the weather conditions in past years. The results will help you decide how hot, cold, wet, or windy it might be!

Date:

Astronomy

Jan. 05, 2014 Rise Set
Actual Time 7:39 AM MST 5:28 PM MST
Civil Twilight 7:11 AM MST 5:57 PM MST
Nautical Twilight 6:39 AM MST 6:29 PM MST
Astronomical Twilight 6:08 AM MST 7:00 PM MST
Moon 10:33 AM MST (1/5) 10:49 PM MST (1/5)
Length of Visible Light 10h 45m
Length of Day
9h 49m
Waxing Crescent, 25% of the Moon is Illuminated
Jan 5
Waxing Crescent
Jan 7
First Quarter
Jan 15
Full
Jan 23
Last Quarter
Jan 30
New

Hourly Weather History & Observations

Time (MST) Temp. Windchill Dew Point Humidity Pressure Visibility Wind Dir Wind Speed Gust Speed Precip Events Conditions
12:54 AM 7.0 °F - 1.9 °F 80% 30.17 in 10.0 mi Calm Calm - N/A   Clear
1:54 AM 7.0 °F - 1.9 °F 80% 30.18 in 10.0 mi Calm Calm - N/A   Clear
2:54 AM 7.0 °F -3.3 °F 1.0 °F 77% 30.20 in 10.0 mi ENE 5.8 mph - N/A   Clear
3:54 AM 3.9 °F -3.4 °F -0.9 °F 80% 30.22 in 10.0 mi ENE 3.5 mph - N/A   Clear
4:54 AM 5.0 °F - -0.0 °F 80% 30.24 in 10.0 mi Calm Calm - N/A   Clear
5:54 AM 3.9 °F - -0.0 °F 84% 30.27 in 10.0 mi Calm Calm - N/A   Clear
6:54 AM 3.0 °F - -2.0 °F 80% 30.32 in 10.0 mi Calm Calm - N/A   Clear
7:54 AM 3.0 °F - -0.9 °F 84% 30.40 in 10.0 mi Calm Calm - N/A   Clear
8:54 AM 14.0 °F - 5.0 °F 67% 30.38 in 10.0 mi Calm Calm - N/A   Clear
9:54 AM 30.0 °F 25.2 °F -4.0 °F 23% 30.31 in 10.0 mi Variable 4.6 mph - N/A   Clear
10:54 AM 34.0 °F - -6.0 °F 18% 30.34 in 10.0 mi Calm Calm - N/A   Clear
11:54 AM 39.9 °F 36.7 °F -7.1 °F 14% 30.29 in 10.0 mi NNW 4.6 mph - N/A   Clear
12:54 PM 42.1 °F 38.4 °F -9.0 °F 11% 30.27 in 10.0 mi Variable 5.8 mph - N/A   Clear
1:54 PM 42.1 °F 40.2 °F -9.0 °F 11% 30.25 in 10.0 mi Variable 3.5 mph - N/A   Clear
2:54 PM 42.1 °F 37.1 °F -6.0 °F 13% 30.26 in 10.0 mi NW 8.1 mph - N/A   Clear
3:54 PM 41.0 °F 37.1 °F -5.1 °F 14% 30.30 in 10.0 mi NE 5.8 mph - N/A   Clear
4:54 PM 36.0 °F 29.6 °F -5.1 °F 17% 30.34 in 10.0 mi NE 8.1 mph - N/A   Clear
5:54 PM 27.0 °F - -5.1 °F 25% 30.40 in 10.0 mi Calm Calm - N/A   Clear
6:54 PM 17.1 °F - -2.9 °F 41% 30.48 in 10.0 mi Calm Calm - N/A   Clear
7:54 PM 18.0 °F 8.7 °F -2.0 °F 41% 30.48 in 10.0 mi NE 6.9 mph - N/A   Clear
8:54 PM 14.0 °F - -2.0 °F 49% 30.48 in 10.0 mi Calm Calm - N/A   Clear
9:54 PM 10.0 °F - -2.0 °F 58% 30.43 in 10.0 mi Calm Calm - N/A   Clear
10:54 PM 7.0 °F - -2.0 °F 67% 30.44 in 10.0 mi Calm Calm - N/A   Clear
11:54 PM 6.1 °F - -2.0 °F 69% 30.41 in 10.0 mi Calm Calm - N/A   Clear